Tracking 30970 objects as of 3-Jul-2025
HD Live streaming from Space Station
objects crossing your sky now

SL-12 R/B(2)

Track SL-12 R/B(2) now!


NORAD ID: 25743
Int'l Code: 1999-027D
Perigee: 7,077.6 km
Apogee: 35,675.1 km
Inclination: 17.2 °
Period: 766.6 minutes
Semi major axis: 27747 km
RCS: 23.7189 m2 (large)
Launch date: May 20, 1999
Source: Commonwealth of Independent States (former USSR) (CIS)
Launch site: TYURATAM MISSILE AND SPACE COMPLEX (TTMTR)

Note: This is a ROCKET BODY
Your satellite tracking list
Your tracking list is empty




NASA's NSSDC Master Catalog

Two Line Element Set (TLE):
1 25743U 99027D   25183.79504301 -.00000096  00000-0  00000+0 0  9991
2 25743  17.1859 275.8637 5153202 109.2226 309.2047  1.87832914179300
Source of the keplerian elements: AFSPC